Flag for U.S.A. Weather past 2 weeks in Springfield, Massachusetts, U.S.A.

Now
44 °F

Clear.


Feels Like: 44 °F
Forecast: 42 / 71 °F
Wind: No wind

Location: Barnes Municipal Airport

Current Time: Sep 19, 2014 at 10:09:53 PM

Latest Report: Sep 19, 2014 at 8:53 PM


Visibility: 10 mi

Pressure: 30.40 "Hg

Humidity: 89%

Dew point: 41 °F

Location of SpringfieldLocation

Historic Weather in Springfield — Graph

°F

Springfield temperature yesterday

Maximum temperature yesterday: 74 °F (at 1:53 PM)
Minimum temperature yesterday: 42 °F (at 5:01 AM)
Average temperature yesterday: 57 °F

Past Weeks' High & Low Weather Summary

 TemperatureHumidityPressure
High93 °F (Sep 6, 1:53 PM)97% (Sep 13, 10:04 PM)30.40 "Hg (Sep 13, 10:04 PM)
Low42 °F (Sep 17, 5:53 AM)33% (Sep 18, 1:53 PM)29.77 "Hg (Sep 6, 4:53 PM)
Average62 °F72%30.11 "Hg
* Reported Sep 4 8:53 PM — Sep 19 8:53 PM, Springfield, Weather by CustomWeather, © 2014

Note: Actual official high and low records may vary slightly from our data, if they occured in-between our weather recording intervals... More about our weather records

Advertising

Springfield weather history for previous 24 hours

 ConditionsComfort  
Time TempWeatherWind HumidityBarometerVisibility
8:53 PM
Sep 19
44 °FClear.No wind89%30.40 "Hg10 mi
7:53 PM49 °FClear.No wind77%30.39 "Hg10 mi
6:53 PM56 °FSunny.No wind47%30.37 "Hg10 mi
5:53 PM60 °FSunny.3 mph39%30.36 "Hg10 mi
4:53 PM61 °FSunny.3 mph39%30.36 "Hg10 mi
3:53 PM61 °FSunny.5 mph35%30.36 "Hg10 mi
2:53 PM61 °FSunny.3 mph34%30.38 "Hg10 mi
1:53 PM59 °FSunny.3 mph36%30.38 "Hg10 mi
12:53 PM57 °FSunny.N/A34%30.39 "Hg10 mi
11:53 AM56 °FSunny.10 mph36%30.38 "Hg10 mi
10:53 AM53 °FSunny.8 mph43%30.38 "Hg10 mi
9:53 AM52 °FSunny.9 mph47%30.39 "Hg10 mi
8:53 AM49 °FSunny.14 mph59%30.37 "Hg10 mi
7:53 AM45 °FSunny.12 mph74%30.36 "Hg10 mi
6:53 AM42 °FClear.9 mph82%30.33 "Hg10 mi
5:53 AM43 °FClear.8 mph82%30.30 "Hg10 mi
4:53 AM43 °FClear.7 mph86%30.27 "Hg10 mi
3:53 AM44 °FPassing clouds.7 mph82%30.24 "Hg10 mi
2:53 AM47 °FClear.7 mph77%30.23 "Hg10 mi
1:53 AM49 °FPassing clouds.3 mph71%30.21 "Hg10 mi
12:53 AM51 °FClear.8 mph66%30.18 "Hg10 mi
11:53 PM
Sep 18
54 °FClear.12 mph72%30.15 "Hg10 mi
10:53 PM56 °FPassing clouds.8 mph75%30.13 "Hg10 mi
Weather by CustomWeather, © 2014

See weather overviewHow to use our weather pages